GW2440 Weather Reports


Display with metric or nautical units.
time (UTC)temp
F
wind
direction
speed
MPH
gust
MPH
rain 1hr
in
rain 24hr
in
rain mn
in
humidity
%
barometer
mb
20260902203605 84 90 3.0 5.0 0.00 0.05 0.05 89 1015.8
20260902203104 84 45 6.0 7.0 0.00 0.05 0.05 89 1015.8
20260902202559 84 138 5.0 6.0 0.00 0.05 0.05 91 1015.5
20260902202056 84 74 5.0 6.0 0.00 0.05 0.05 90 1015.5
20260902201546 84 73 4.0 5.0 0.00 0.05 0.05 90 1015.8
20260902201045 84 62 3.0 5.0 0.00 0.05 0.05 90 1016.2
20260902200540 84 45 5.0 8.0 0.00 0.05 0.05 91 1016.2
20260902200037 84 56 3.0 5.0 0.00 0.05 0.05 92 1016.2
20260902195532 84 49 3.0 5.0 0.00 0.05 0.05 91 1016.2
20260902195030 84 67 5.0 7.0 0.00 0.05 0.05 92 1016.2
20260902194525 84 55 3.0 3.0 0.00 0.05 0.05 93 1016.2
20260902194020 84 55 1.0 2.0 0.00 0.05 0.05 93 1016.2
20260902193516 84 51 2.0 2.0 0.00 0.05 0.05 93 1016.2
20260902193015 83 88 2.0 2.0 0.00 0.05 0.05 92 1016.2
20260902192514 83 36 2.0 2.0 0.00 0.05 0.05 94 1016.5
20260902192013 83 71 2.0 3.0 0.00 0.05 0.05 94 1016.2
20260902191509 83 144 1.0 1.0 0.00 0.05 0.05 95 1016.5
20260902191003 83 96 2.0 2.0 0.00 0.05 0.05 94 1016.2
20260902190458 83 48 4.0 7.0 0.00 0.05 0.05 93 1016.5
20260902185954 84 56 4.0 5.0 0.00 0.05 0.05 93 1016.5
20260902185450 84 18 4.0 6.0 0.00 0.05 0.05 93 1016.9
20260902184945 84 29 6.0 7.0 0.00 0.05 0.05 92 1016.2
20260902184440 82 23 3.0 3.0 0.00 0.05 0.05 95 1016.5
20260902183936 82 28 1.0 2.0 0.00 0.05 0.05 98 1016.9
20260902183432 81 26 1.0 2.0 0.00 0.05 0.05 98 1016.9
20260902182927 81 51 1.0 2.0 0.07 0.05 0.05 97 1016.9
20260902182424 81 65 1.0 1.0 0.31 0.05 0.05 98 1016.9
20260902181919 80 43 3.0 3.0 0.24 0.04 0.04 95 1017.2
20260902181414 82 54 5.0 8.0 0.00 0.00 0.00 93 1017.2
20260902180909 84 40 8.0 11.0 0.00 0.00 0.00 88 1017.2
20260902180404 85 43 9.0 11.0 0.00 0.00 0.00 86 1016.9
20260902175900 85 14 7.0 9.0 0.00 0.00 0.00 89 1017.2
20260902175354 85 13 7.0 8.0 0.00 0.00 0.00 86 1016.9
20260902174849 86 45 7.0 8.0 0.00 0.00 0.00 88 1016.9
20260902174341 86 56 8.0 9.0 0.00 0.00 0.00 87 1017.2
20260902173831 85 19 2.0 2.0 0.00 0.00 0.00 88 1016.9
20260902173330 85 47 6.0 7.0 0.00 0.00 0.00 88 1016.9
20260902172825 85 45 6.0 7.0 0.00 0.00 0.00 87 1016.9
20260902172324 85 48 6.0 7.0 0.00 0.00 0.00 86 1017.2
20260902171814 86 29 7.0 9.0 0.00 0.00 0.00 85 1017.2
20260902171309 86 83 5.0 7.0 0.00 0.00 0.00 84 1017.2
20260902170806 87 54 5.0 7.0 0.00 0.00 0.00 83 1017.5
20260902170300 87 39 5.0 6.0 0.00 0.00 0.00 83 1017.5
20260902165756 87 84 3.0 3.0 0.00 0.00 0.00 84 1017.5
20260902165250 88 51 7.0 11.0 0.00 0.00 0.00 81 1017.5
20260902164744 86 19 5.0 6.0 0.00 0.00 0.00 82 1017.5
20260902164238 88 47 6.0 9.0 0.00 0.00 0.00 82 1017.5
20260902163733 87 28 4.0 5.0 0.00 0.00 0.00 83 1017.5
20260902163228 86 338 2.0 2.0 0.00 0.00 0.00 83 1017.9
20260902162726 87 42 5.0 7.0 0.00 0.00 0.00 83 1017.9
20260902162221 87 7 5.0 6.0 0.00 0.00 0.00 83 1017.9
20260902161716 87 137 2.0 2.0 0.00 0.00 0.00 83 1017.9
20260902161212 87 21 7.0 8.0 0.00 0.00 0.00 84 1018.2
20260902160708 86 100 2.0 3.0 0.00 0.00 0.00 86 1017.9
20260902160203 86 47 7.0 8.0 0.00 0.00 0.00 85 1017.9
20260902155701 87 32 7.0 8.0 0.00 0.00 0.00 84 1017.9
20260902155159 86 34 5.0 7.0 0.00 0.00 0.00 85 1018.2
20260902154655 86 41 4.0 6.0 0.00 0.00 0.00 85 1018.2
20260902154154 87 53 3.0 3.0 0.00 0.00 0.00 84 1018.2
20260902153649 86 51 8.0 9.0 0.00 0.00 0.00 84 1018.2
20260902153144 86 20 5.0 7.0 0.00 0.00 0.00 84 1018.2
20260902152640 86 63 7.0 9.0 0.00 0.00 0.00 84 1018.2
20260902152135 86 69 3.0 3.0 0.00 0.00 0.00 84 1018.6
20260902151630 86 32 5.0 6.0 0.00 0.00 0.00 86 1018.2
20260902151125 86 67 3.0 5.0 0.00 0.00 0.00 86 1018.6
20260902150621 85 82 5.0 7.0 0.00 0.00 0.00 86 1018.2
20260902150116 85 90 2.0 3.0 0.00 0.00 0.00 89 1018.6
20260902145616 85 49 3.0 3.0 0.00 0.00 0.00 88 1018.2
20260902145115 84 76 3.0 5.0 0.00 0.00 0.00 89 1018.2
20260902144612 85 59 5.0 7.0 0.00 0.00 0.00 87 1018.6
20260902144107 85 45 8.0 9.0 0.00 0.00 0.00 86 1018.6
20260902143602 85 44 6.0 7.0 0.00 0.00 0.00 88 1018.2
20260902143057 84 72 4.0 6.0 0.00 0.00 0.00 89 1018.6
20260902142552 84 11 6.0 7.0 0.00 0.00 0.00 87 1018.2
20260902142048 84 70 5.0 7.0 0.00 0.00 0.00 90 1018.2
20260902141542 84 42 4.0 5.0 0.00 0.00 0.00 91 1018.2
20260902141037 84 37 7.0 9.0 0.00 0.00 0.00 91 1018.2
20260902140532 84 68 3.0 3.0 0.00 0.00 0.00 90 1018.2
20260902140027 84 79 1.0 2.0 0.00 0.00 0.00 90 1017.9
20260902135526 84 50 5.0 5.0 0.00 0.00 0.00 91 1017.9
20260902135022 83 25 3.0 5.0 0.00 0.00 0.00 92 1018.2
20260902134518 83 35 3.0 3.0 0.00 0.00 0.00 92 1017.9
20260902134018 83 51 6.0 7.0 0.00 0.00 0.00 93 1017.9
20260902133512 83 51 3.0 3.0 0.00 0.00 0.00 93 1017.9
20260902133012 82 63 3.0 5.0 0.00 0.00 0.00 95 1017.9
20260902132508 83 61 3.0 5.0 0.00 0.00 0.00 96 1017.9
20260902132003 83 38 3.0 3.0 0.00 0.00 0.00 95 1017.9
20260902131459 82 55 4.0 6.0 0.00 0.00 0.00 95 1018.2
20260902130958 82 53 4.0 5.0 0.00 0.00 0.00 95 1018.2
20260902130454 82 4 3.0 5.0 0.00 0.00 0.00 96 1018.2
20260902125949 82 79 1.0 1.0 0.00 0.00 0.00 95 1018.2
20260902125446 82 127 1.0 2.0 0.00 0.00 0.00 97 1018.2
20260902124941 81 60 0.0 1.0 0.00 0.00 0.00 98 1018.2
20260902124437 81 2 3.0 3.0 0.00 0.00 0.00 98 1018.2
20260902123932 80 180 3.0 3.0 0.00 0.00 0.00 99 1017.9
20260902123428 80 33 3.0 5.0 0.00 0.00 0.00 99 1017.9
20260902122926 80 9 2.0 2.0 0.00 0.00 0.00 99 1017.9
20260902122423 79 154 1.0 1.0 0.00 0.00 0.00 99 1017.9
20260902121918 78 118 1.0 2.0 0.00 0.00 0.00 99 1017.9
20260902121413 78 1 1.0 2.0 0.00 0.00 0.00 99 1017.9
20260902120908 78 349 3.0 3.0 0.00 0.00 0.00 99 1017.9
20260902120404 77 316 1.0 2.0 0.00 0.00 0.00 99 1017.9
20260902115903 77 162 0.0 1.0 0.00 0.00 0.00 99 1017.9
20260902115400 77 21 1.0 2.0 0.00 0.00 0.00 99 1017.9
20260902114856 77 309 1.0 1.0 0.00 0.00 0.00 99 1017.9
20260902114352 77 343 2.0 2.0 0.00 0.00 0.00 99 1017.9
20260902113851 77 346 1.0 1.0 0.00 0.00 0.00 99 1017.9
20260902113347 77 242 1.0 1.0 0.00 0.00 0.00 99 1017.9
20260902112846 77 326 1.0 1.0 0.00 0.00 0.00 99 1017.9
20260902112343 77 358 1.0 1.0 0.00 0.00 0.00 99 1017.9
20260902111838 77 270 1.0 1.0 0.00 0.00 0.00 99 1017.5
20260902111335 77 110 0.0 1.0 0.00 0.00 0.00 99 1017.5
20260902110830 77 109 0.0 1.0 0.00 0.00 0.00 99 1017.5
20260902110326 77 193 0.0 0.0 0.00 0.00 0.00 99 1017.2
20260902105826 77 282 1.0 1.0 0.00 0.00 0.00 99 1017.5
20260902105321 77 357 1.0 2.0 0.00 0.00 0.00 99 1017.5
20260902104816 77 286 0.0 1.0 0.00 0.00 0.00 99 1017.2
20260902104312 77 332 2.0 2.0 0.00 0.00 0.00 99 1017.2
20260902103812 77 27 1.0 2.0 0.00 0.00 0.00 99 1017.5
20260902103307 77 18 1.0 2.0 0.00 0.00 0.00 99 1017.5
20260902102802 77 41 0.0 1.0 0.00 0.00 0.00 99 1017.5
20260902102300 77 212 0.0 0.0 0.00 0.00 0.00 99 1017.5
20260902101755 77 254 0.0 0.0 0.00 0.00 0.00 99 1017.2
20260902101249 77 227 0.0 1.0 0.00 0.00 0.00 99 1017.2
20260902100748 77 223 1.0 1.0 0.00 0.00 0.00 99 1017.2
20260902100243 77 240 1.0 1.0 0.00 0.00 0.00 99 1017.5
20260902095738 76 205 0.0 0.0 0.00 0.00 0.00 99 1017.5
20260902095237 76 146 0.0 0.0 0.00 0.00 0.00 99 1017.2
20260902094732 76 141 0.0 1.0 0.00 0.00 0.00 99 1017.2
20260902094229 76 341 0.0 0.0 0.00 0.00 0.00 99 1016.9
20260902093727 76 47 2.0 2.0 0.00 0.00 0.00 99 1016.9
20260902093224 76 319 0.0 0.0 0.00 0.00 0.00 99 1016.9
20260902092723 76 193 0.0 0.0 0.00 0.00 0.00 99 1016.9
20260902092218 76 230 0.0 0.0 0.00 0.00 0.00 99 1016.9
20260902091717 76 213 0.0 0.0 0.00 0.00 0.00 99 1016.9
20260902091214 76 245 0.0 0.0 0.00 0.00 0.00 99 1016.5
20260902090710 76 236 0.0 0.0 0.00 0.00 0.00 99 1016.5
20260902090209 76 230 0.0 0.0 0.00 0.00 0.00 99 1016.9
20260902085704 76 232 0.0 0.0 0.00 0.00 0.00 99 1016.5
20260902085159 76 224 0.0 0.0 0.00 0.00 0.00 99 1016.2
20260902084655 76 238 0.0 0.0 0.00 0.00 0.00 99 1016.5
20260902084151 76 190 0.0 0.0 0.00 0.00 0.00 99 1016.5
20260902083646 76 199 0.0 0.0 0.00 0.00 0.00 99 1016.5
20260902083145 76 185 0.0 0.0 0.00 0.00 0.00 99 1016.9
20260902082640 76 212 0.0 0.0 0.00 0.00 0.00 99 1016.9
20260902082137 76 212 0.0 1.0 0.00 0.00 0.00 99 1016.5
20260902081633 76 333 0.0 0.0 0.00 0.00 0.00 99 1016.9
20260902081128 76 283 2.0 2.0 0.00 0.00 0.00 99 1016.5
20260902080624 76 217 0.0 0.0 0.00 0.00 0.00 99 1016.5
20260902080120 76 340 0.0 1.0 0.00 0.00 0.00 99 1016.5
20260902075619 76 310 0.0 0.0 0.00 0.00 0.00 99 1016.9
20260902075116 76 251 0.0 0.0 0.00 0.00 0.00 99 1016.5
20260902074611 76 251 0.0 0.0 0.00 0.00 0.00 99 1016.9
20260902074106 77 232 0.0 0.0 0.00 0.00 0.00 99 1016.9
20260902073601 77 201 0.0 0.0 0.00 0.00 0.00 99 1016.5
20260902073058 77 237 0.0 0.0 0.00 0.00 0.00 99 1016.9
20260902072553 77 233 0.0 0.0 0.00 0.00 0.00 99 1017.2
20260902072050 77 258 0.0 0.0 0.00 0.00 0.00 99 1016.9
20260902071549 77 311 0.0 0.0 0.00 0.00 0.00 99 1016.9
20260902071046 77 311 0.0 0.0 0.00 0.00 0.00 99 1016.9
20260902070540 77 311 0.0 0.0 0.00 0.00 0.00 99 1017.2
20260902070035 77 311 0.0 0.0 0.00 0.00 0.00 99 1017.2
20260902065529 77 278 0.0 0.0 0.00 0.00 0.00 99 1017.2
20260902065025 77 272 0.0 0.0 0.00 0.00 0.00 99 1017.2
20260902064521 77 284 0.0 0.0 0.00 0.00 0.00 99 1017.2
20260902064016 77 296 0.0 0.0 0.00 0.00 0.00 99 1017.5
20260902063515 77 318 0.0 0.0 0.00 0.00 0.00 99 1017.5
20260902063011 77 318 0.0 0.0 0.00 0.00 0.00 99 1017.2
20260902062509 77 317 0.0 0.0 0.00 0.00 0.00 99 1017.2
20260902062005 77 317 0.0 0.0 0.00 0.00 0.00 99 1017.2
20260902061459 77 317 0.0 0.0 0.00 0.00 0.00 99 1017.2
20260902060955 77 317 0.0 0.0 0.00 0.00 0.00 99 1017.2
20260902060451 77 318 0.0 0.0 0.00 0.00 0.00 99 1016.9
20260902055947 77 318 0.0 0.0 0.00 0.00 0.00 99 1017.2
20260902055443 77 318 0.0 0.0 0.00 0.00 0.00 99 1017.2
20260902054938 77 318 0.0 0.0 0.00 0.00 0.00 99 1017.2
20260902054433 77 318 0.0 0.0 0.00 0.00 0.00 99 1017.2
20260902053928 78 318 0.0 0.0 0.00 0.00 0.00 99 1017.5
20260902053424 78 318 0.0 0.0 0.00 0.00 0.00 99 1017.5
20260902052923 78 318 0.0 0.0 0.00 0.00 0.00 99 1017.2
20260902052418 78 318 0.0 0.0 0.00 0.00 0.00 99 1017.5
20260902051913 78 318 0.0 0.0 0.00 0.00 0.00 99 1017.2
20260902051408 78 318 0.0 0.0 0.00 0.00 0.00 99 1017.2
20260902050907 78 319 0.0 0.0 0.00 0.00 0.00 99 1017.2
20260902050407 78 319 0.0 0.0 0.00 0.00 0.00 99 1017.5
20260902045901 78 319 0.0 0.0 0.00 0.00 0.00 99 1017.2
20260902045358 78 313 0.0 0.0 0.00 0.00 0.00 99 1017.5
20260902044854 78 346 0.0 0.0 0.00 0.00 0.00 99 1017.2
20260902044349 78 107 0.0 0.0 0.00 0.00 0.00 99 1017.2
20260902043849 78 205 0.0 0.0 0.00 0.00 0.00 99 1017.2
20260902043344 78 343 0.0 0.0 0.00 0.00 0.00 99 1017.2
20260902042839 78 314 0.0 0.0 0.00 0.00 0.00 99 1017.2
20260902042338 78 341 0.0 0.0 0.00 0.00 0.00 99 1017.2
20260902041833 78 20 0.0 0.0 0.00 0.00 0.00 99 1017.5
20260902041328 78 347 0.0 1.0 0.00 0.00 0.00 99 1017.9
20260902040826 78 193 0.0 0.0 0.00 0.00 0.00 99 1017.9
20260902040322 78 322 0.0 0.0 0.00 0.00 0.00 99 1017.5
20260902035821 79 208 0.0 0.0 0.00 0.05 0.05 98 1017.9
20260902035317 79 332 0.0 0.0 0.00 0.05 0.05 98 1017.9
20260902034815 79 5 0.0 0.0 0.00 0.05 0.05 98 1017.9
20260902034311 79 69 0.0 0.0 0.00 0.05 0.05 98 1017.9
20260902033808 79 60 0.0 0.0 0.00 0.05 0.05 98 1017.9
20260902033304 79 31 0.0 0.0 0.00 0.05 0.05 98 1017.9
20260902032803 79 357 0.0 2.0 0.00 0.05 0.05 98 1017.9
20260902032258 79 34 0.0 0.0 0.00 0.05 0.05 97 1018.2
20260902031757 79 41 0.0 0.0 0.00 0.05 0.05 97 1018.2
20260902031253 79 9 0.0 0.0 0.00 0.05 0.05 97 1018.2
20260902030748 79 41 0.0 0.0 0.00 0.05 0.05 97 1018.2
20260902030244 79 47 0.0 1.0 0.00 0.05 0.05 97 1017.9
20260902025742 79 24 0.0 0.0 0.00 0.05 0.05 96 1017.9
20260902025238 79 65 2.0 2.0 0.00 0.05 0.05 96 1018.2
20260902024732 79 335 0.0 0.0 0.00 0.05 0.05 95 1018.2
20260902024228 79 353 0.0 0.0 0.00 0.05 0.05 94 1018.6
20260902023724 79 336 0.0 0.0 0.00 0.05 0.05 94 1018.2
20260902023219 79 355 1.0 1.0 0.00 0.05 0.05 93 1018.2
20260902022719 79 34 2.0 2.0 0.00 0.05 0.05 93 1018.6
20260902022214 80 355 3.0 3.0 0.00 0.05 0.05 93 1018.6
20260902021709 80 49 1.0 1.0 0.00 0.05 0.05 93 1018.6
20260902021204 80 87 0.0 0.0 0.00 0.05 0.05 93 1018.2
20260902020700 80 103 0.0 0.0 0.00 0.05 0.05 93 1018.2
20260902020156 80 122 0.0 0.0 0.00 0.05 0.05 92 1018.2
20260902015651 80 102 0.0 0.0 0.00 0.05 0.05 92 1018.2
20260902015148 80 143 0.0 0.0 0.00 0.05 0.05 92 1018.6
20260902014643 80 65 2.0 2.0 0.00 0.05 0.05 92 1018.6
20260902014138 80 92 0.0 1.0 0.00 0.05 0.05 92 1018.2
20260902013637 80 60 1.0 1.0 0.00 0.05 0.05 92 1018.6
20260902013133 80 52 2.0 2.0 0.00 0.05 0.05 92 1018.2
20260902012629 80 58 2.0 2.0 0.00 0.05 0.05 92 1017.9
20260902012124 80 30 3.0 3.0 0.00 0.05 0.05 93 1018.2
20260902011620 80 64 2.0 2.0 0.00 0.05 0.05 94 1018.2
20260902011119 80 98 1.0 2.0 0.00 0.05 0.05 95 1018.2
20260902010619 80 55 3.0 3.0 0.00 0.05 0.05 94 1018.2
20260902010115 80 48 2.0 3.0 0.00 0.05 0.05 94 1018.2
20260902005612 80 15 3.0 3.0 0.00 0.05 0.05 94 1018.2
20260902005109 81 31 3.0 5.0 0.00 0.05 0.05 94 1018.2
20260902004608 81 49 3.0 5.0 0.00 0.05 0.05 93 1017.9
20260902004103 81 38 3.0 5.0 0.00 0.05 0.05 93 1017.9
20260902003558 81 56 3.0 6.0 0.00 0.05 0.05 93 1017.9
20260902003054 81 46 5.0 6.0 0.00 0.05 0.05 92 1017.9
20260902002549 81 31 4.0 6.0 0.00 0.05 0.05 92 1018.2
20260902002044 81 63 6.0 7.0 0.00 0.05 0.05 92 1018.2
20260902001538 81 55 3.0 5.0 0.00 0.05 0.05 92 1018.2
20260902001034 81 48 4.0 5.0 0.00 0.05 0.05 92 1017.9
20260902000528 82 28 3.0 3.0 0.00 0.05 0.05 93 1017.9
20260902000024 82 47 2.0 3.0 0.00 0.05 0.05 92 1017.9
20260901235518 82 25 4.0 5.0 0.00 0.05 0.05 92 1017.9
20260901235014 82 23 2.0 2.0 0.00 0.05 0.05 91 1017.5
20260901234512 82 65 4.0 5.0 0.00 0.05 0.05 91 1017.9
20260901234008 82 50 3.0 3.0 0.00 0.05 0.05 92 1017.9
20260901233503 82 82 2.0 2.0 0.00 0.05 0.05 91 1017.9
20260901232959 82 40 7.0 8.0 0.00 0.05 0.05 91 1017.9
20260901232454 82 34 2.0 2.0 0.00 0.05 0.05 91 1017.9
20260901231949 83 39 3.0 5.0 0.00 0.05 0.05 91 1018.2
20260901231445 83 18 3.0 3.0 0.00 0.05 0.05 91 1017.9
20260901230942 83 55 2.0 3.0 0.00 0.05 0.05 90 1017.9
20260901230441 83 72 3.0 5.0 0.00 0.05 0.05 89 1017.5
20260901225936 84 355 3.0 5.0 0.00 0.05 0.05 87 1017.5
20260901225436 84 67 3.0 3.0 0.00 0.05 0.05 86 1017.5
20260901224931 84 47 4.0 5.0 0.00 0.05 0.05 86 1017.5
20260901224427 84 43 5.0 6.0 0.00 0.05 0.05 85 1017.2
20260901223923 84 358 4.0 5.0 0.00 0.05 0.05 84 1017.5
20260901223418 85 67 4.0 6.0 0.00 0.05 0.05 83 1017.2
20260901222914 85 50 4.0 5.0 0.00 0.05 0.05 83 1017.5
20260901222410 85 44 5.0 6.0 0.00 0.05 0.05 83 1017.5
20260901221906 85 68 6.0 8.0 0.00 0.05 0.05 83 1017.2
20260901221401 86 53 3.0 3.0 0.00 0.05 0.05 82 1017.2
20260901220856 85 36 4.0 5.0 0.00 0.05 0.05 82 1017.2
20260901220354 86 72 9.0 10.0 0.00 0.05 0.05 81 1017.2
20260901215854 86 39 5.0 8.0 0.00 0.05 0.05 82 1017.2
20260901215353 86 62 5.0 8.0 0.00 0.05 0.05 82 1016.9
20260901214852 86 50 7.0 8.0 0.00 0.05 0.05 81 1016.9
20260901214351 86 85 6.0 8.0 0.00 0.05 0.05 82 1016.9
20260901213850 85 68 3.0 3.0 0.00 0.05 0.05 83 1017.2
20260901213345 85 60 4.0 5.0 0.00 0.05 0.05 83 1016.9
20260901212839 85 58 5.0 7.0 0.00 0.05 0.05 82 1016.9
20260901212335 85 58 7.0 8.0 0.00 0.05 0.05 82 1016.9
20260901211831 85 46 7.0 9.0 0.00 0.05 0.05 82 1017.2
20260901211327 86 53 9.0 13.0 0.00 0.05 0.05 81 1017.2
20260901210822 86 72 5.0 8.0 0.00 0.05 0.05 83 1017.2
20260901210318 86 54 10.0 13.0 0.00 0.05 0.05 82 1016.9
20260901205814 86 46 4.0 6.0 0.00 0.05 0.05 83 1017.2
20260901205314 85 52 7.0 8.0 0.00 0.05 0.05 83 1017.2
20260901204809 84 100 4.0 6.0 0.00 0.05 0.05 86 1017.2
20260901204306 84 46 3.0 3.0 0.00 0.05 0.05 89 1017.2
20260901203805 84 32 4.0 5.0 0.00 0.05 0.05 88 1017.2